{"data":{"norad_id":58737,"epoch":"2026-05-25T01:20:47.078880Z","epoch_age_seconds":80235,"freshness":"FRESH","line1":"1 58737U 24005K   26145.05610045  .00001256  00000+0  55152-4 0  9995","line2":"2 58737  43.0030 148.4124 0001772 296.3117  63.7552 15.27578264132115","mean_motion":15.27578264,"eccentricity":0.0001772,"inclination_deg":43.003,"raan_deg":148.4124,"arg_perigee_deg":296.3117,"mean_anomaly_deg":63.7552,"bstar":5.5152e-5,"rev_number":13211,"period_min":94.266855842091,"perigee_km":481.83849115576,"apogee_km":484.27009735044,"semimajor_km":6861.1912942531,"source":"CELESTRAK","updated_at":"2026-05-25T13:38:18.720548Z"}}